Rockport, TX

5:33 AM CDT on May 24, 2017 (GMT -0500)
Aransas County

Weather History for KRKP - December, 2012

Change the Weather History Date:

Wednesday, December 5, 2012

  Actual Average Record
Temperature  
Mean Temperature 65 °F -  
Max Temperature 73 °F 70 °F 87 °F (1977)
Min Temperature 57 °F 52 °F 35 °F (1990)
Growing Degree Days 15 (Base 50)    
Moisture  
Dew Point 56 °F    
Average Humidity 72    
Maximum Humidity 94    
Minimum Humidity 48    
Precipitation  
Precipitation 0.00 in - - ()
Sea Level Pressure  
Sea Level Pressure 30.13 in    
Wind  
Wind Speed 8 mph (NE)    
Max Wind Speed 13 mph    
Max Gust Speed -    
Visibility 10 miles    
Events      
Averages and records for this station are not official NWS values.
T = Trace of Precipitation, MM = Missing Value Source: NWS Daily Summary

Daily Weather History Graph

Daily Weather History Graph

Search for Another Location

Airport or City:

Trip Planner

Search our weather history database for the weather conditions in past years. The results will help you decide how hot, cold, wet, or windy it might be!

Date:

Astronomy

Dec. 05, 2012 Rise Set
Actual Time 7:05 AM CST 5:32 PM CST
Civil Twilight 6:40 AM CST 5:57 PM CST
Nautical Twilight 6:11 AM CST 6:26 PM CST
Astronomical Twilight 5:42 AM CST 6:55 PM CST
Moon 11:57 PM CST (12/5) 11:52 AM CST (12/5)
Length of Visible Light 11h 17m
Length of Day
10h 26m
Waning Gibbous, 59% of the Moon is Illuminated
Dec 5
Waning Gibbous
Dec 6
Last Quarter
Dec 13
New
Dec 19
First Quarter
Dec 28
Full

Hourly Weather History & Observations

Time (CST) Temp. Dew Point Humidity Pressure Visibility Wind Dir Wind Speed Gust Speed Precip Events Conditions
12:53 AM 66.0 °F 64.0 °F 93% 30.16 in 10.0 mi North 6.9 mph - N/A   Mostly Cloudy
1:06 AM 66.2 °F 64.4 °F 94% 30.14 in 10.0 mi North 8.1 mph - N/A   Mostly Cloudy
1:53 AM 66.9 °F 63.0 °F 87% 30.16 in 10.0 mi NNE 9.2 mph - N/A   Overcast
2:53 AM 66.0 °F 61.0 °F 84% 30.16 in 10.0 mi North 9.2 mph - N/A   Overcast
3:53 AM 64.0 °F 57.0 °F 78% 30.16 in 10.0 mi NNE 11.5 mph - N/A   Clear
4:53 AM 62.1 °F 55.0 °F 78% 30.16 in 10.0 mi North 6.9 mph - N/A   Clear
5:53 AM 60.1 °F 52.0 °F 75% 30.18 in 10.0 mi North 9.2 mph - N/A   Clear
6:53 AM 57.9 °F 48.9 °F 72% 30.19 in 10.0 mi North 11.5 mph - N/A   Clear
8:53 AM 60.1 °F 46.0 °F 60% 30.21 in 10.0 mi North 12.7 mph - N/A   Clear
9:53 AM 63.0 °F 48.0 °F 58% 30.22 in 10.0 mi North 9.2 mph - N/A   Clear
10:53 AM 66.0 °F 50.0 °F 56% 30.21 in 10.0 mi NNW 6.9 mph - N/A   Clear
11:53 AM 70.0 °F 51.1 °F 51% 30.18 in 10.0 mi NNW 4.6 mph - N/A   Clear
12:53 PM 72.0 °F 51.1 °F 48% 30.14 in 10.0 mi Variable 5.8 mph - N/A   Clear
1:53 PM 73.9 °F 53.1 °F 48% 30.10 in 10.0 mi NNE 4.6 mph - N/A   Clear
2:53 PM 73.9 °F 55.0 °F 52% 30.07 in 10.0 mi Variable 4.6 mph - N/A   Clear
3:53 PM 72.0 °F 57.0 °F 59% 30.07 in 10.0 mi ESE 5.8 mph - N/A   Clear
4:53 PM 70.0 °F 60.1 °F 71% 30.06 in 10.0 mi East 8.1 mph - N/A   Clear
6:53 PM 68.0 °F 59.0 °F 73% 30.06 in 10.0 mi ENE 9.2 mph - N/A   Clear
7:53 PM 66.9 °F 59.0 °F 76% 30.07 in 10.0 mi East 10.4 mph - N/A   Clear
8:53 PM 66.0 °F 60.1 °F 81% 30.09 in 10.0 mi East 8.1 mph - N/A   Clear
9:53 PM 64.9 °F 60.1 °F 84% 30.07 in 10.0 mi East 11.5 mph - N/A   Clear
10:53 PM 64.9 °F 61.0 °F 87% 30.06 in 8.0 mi East 8.1 mph - N/A   Clear
11:53 PM 64.0 °F 62.1 °F 93% 30.06 in 7.0 mi East 5.8 mph - N/A   Clear